Regional Weather Roundup
Issued by NWS

Home | Current Version | Previous Version | Graphics & Text | Print | Product List | Glossary On
Versions: 1 2 3 4 5 6 7 8 9 10 11 12 13 14 15 16 17 18 19 20 21 22 23 24 25 26 27 28 29 30 31 32 33 34 35 36 37 38 39 40 41 42 43 44 45 46 47 48 49 50
000
ASUS45 KTFX 181819
RWRMT
MONTANA HOURLY WEATHER ROUNDUP
NATIONAL WEATHER SERVICE GREAT FALLS MT
1219 PM MDT THU SEP 18 2014

NOTE: "FAIR" INDICATES FEW OR NO CLOUDS BELOW 12000 FEET WITH NO
SIGNIFICANT WEATHER AND/OR OBSTRUCTIONS TO VISIBILITY.

* THESE STATIONS ARE NOT UNDER NWS QUALITY CONTROL. THEY DO NOT
   REPORT WEATHER SUCH AS PRECIPITATION OR FOG.

MTZ001>007-043-181900-
WEST OF THE DIVIDE
CITY           SKY/WX    TMP DP  RH WIND       PRES   REMARKS
KALISPELL      SMOKE     59  52  78 CALM      29.75S
MISSOULA       CLOUDY    61  52  72 CALM      29.83F
BUTTE          CLOUDY    66  48  52 VRB3      29.95S
MULLAN PASS    PTCLDY    63  39  41 VRB7      29.91R
* ESSEX        N/A       69  44  41 SE4        N/A
* LINCOLN      N/A       56  43  62 SW2        N/A
* LOOKOUT PASS N/A       67  43  42 S6G18      N/A
* POLSON       N/A       66  49  54 S2G8       N/A
* RONAN APT    CLOUDY    72  50  46 SE11G16    N/A
* SEELEY LAKE  N/A       53  48  83 E3G8       N/A
* THOMP F APT  PTCLDY    66  48  52 E7G13      N/A
$$

MTZ008-052>055-181900-
SOUTHWEST MONTANA
CITY           SKY/WX    TMP DP  RH WIND       PRES   REMARKS
BOZEMAN        CLOUDY    63  55  75 N9        29.90F
DILLON         CLOUDY    64  52  65 S6        29.94S
W YELLOWSTONE  PTSUNNY   54  50  86 CALM      30.05F
* THREE FORKS  PTSUNNY   64  43  47 SW6        N/A
* BOULDER HILL N/A       59  48  67 S14G19     N/A
* MONIDA PASS  N/A       64  47  54 SE24       N/A
* RAYNOLDS PAS N/A       61  40  46 SE21G29    N/A
* WHITEHALL    N/A       67  58  73 W3G10      N/A
* WISE RIVER   N/A       59  47  65 W5         N/A
$$

MTZ009>010-012-014-046-048-049-054-181900-
EAST SLOPES AND CENTRAL MONTANA
CITY           SKY/WX    TMP DP  RH WIND       PRES   REMARKS
CUT BANK       HAZE      70  43  38 SW15      29.73R
GREAT FALLS    CLOUDY    72  48  43 SW18      29.75S
HELENA         CLOUDY    70  48  46 CALM      29.84S
* CONRAD       CLOUDY    70  48  46 SW20G31    N/A
* EAST GLACIER N/A       65  41  42 W22G29     N/A
* MONARCH      N/A       66  41  40 S15G24     N/A
* PENDROY      N/A       65  46  50 W41G55     N/A
* ROGERS PASS  N/A       69  42  38 SE11G16    N/A
* SAINT MARY   N/A       70  40  34 SW8G17     N/A
* SWEET GRASS  N/A       73  38  28 SW22G29    N/A
* WHITE SULPH  N/A       63  51  65 S9G14      N/A
$$

MTZ011-013-016-021-035-040-045-047-050-051-181900-
NORTH CENTRAL MONTANA
CITY           SKY/WX    TMP DP  RH WIND       PRES   REMARKS
HAVRE          PTSUNNY   73  48  41 SW15      29.68R
LEWISTOWN      HAZE      72  48  43 S20       29.79F
* CHINOOK      PTSUNNY   64  54  70 CALM      29.66S
* CHESTER      N/A       62  51  67 SW2        N/A
* DENTON       N/A       76  52  43 S25G34     N/A
* GEYSER       N/A       74  46  37 S16G21     N/A
* JUDITH GAP   N/A       64  54  70 SW7        N/A
* LOMA         N/A       63  53  70 NE2        N/A
$$

MTZ017>020-022>027-061-062-181900-
NORTHEAST MONTANA
CITY           SKY/WX    TMP DP  RH WIND       PRES   REMARKS
GLASGOW        CLOUDY    70  55  59 E3        29.64F
GLENDIVE       PTSUNNY   73  55  53 S10       29.73F
JORDAN         CLOUDY    73  50  44 SW23G30   29.68S
SIDNEY         PTCLDY    75  55  50 S14       29.70F
WOLF POINT     PTSUNNY   75  55  50 CALM      29.65F
* BEAVER HILL  N/A       79  54  42 SW14G20    N/A
* CIRCLE       N/A       74  55  52 SW4G12     N/A
* LINDSAY DVD  N/A       78  51  39 S12G17     N/A
* NAVAJO       N/A       75  53  46 SW9G14     N/A
* SACO         N/A       67  56  68 E4         N/A
$$

MTZ028>042-056>058-181900-
SOUTHCENTRAL AND SOUTHEAST MONTANA
CITY           SKY/WX    TMP DP  RH WIND       PRES   REMARKS
BAKER          PTSUNNY   82  54  38 SW3       29.78S
BILLINGS       LGT RAIN  66  55  68 W13       29.87F
LIVINGSTON     PTSUNNY   66  55  68 VRB6      29.91F
MILES CITY     CLOUDY    77  52  42 W13       29.77R
* LAUREL APT   CLOUDY    61  54  78 N/A        N/A
* ROUNDUP APT  CLOUDY    64  54  70 W11        N/A
* ALZADA       N/A       81  52  37 SE6        N/A
* HYSHAM       N/A       70  48  46 W13G19     N/A
* LAME DEER    N/A       72  46  40 W12G17     N/A
* REED POINT   N/A       60  58  93 SE4        N/A
* ROSCOE HILL  N/A       62  43  50 NE7        N/A
$$

REGIONAL REPORTS...DAKOTAS
CITY           SKY/WX    TMP DP  RH WIND       PRES   REMARKS
WILLISTON      PTSUNNY   77  54  45 S10       29.68F
DICKINSON      CLOUDY    73  57  57 S17       29.76S
BEACH          N/A       77  55  47 SW9       29.76S
CROSBY         SUNNY     73  54  51 S15       29.66F
TIOGA          SUNNY     72  54  53 S16G24    29.73F
WATFORD CITY   SUNNY     77  54  45 S14G20    29.69S
BISMARCK       SUNNY     77  61  58 S18       29.80F
GRAND FORKS    PTCLDY    63  54  73 S15G22    29.92F
FARGO          SUNNY     66  54  65 S14       29.94F
BUFFALO SD     PTCLDY    79  55  44 S13       29.74F
RAPID CITY     SUNNY     79  55  44 SE9       29.84F
$$

REGIONAL REPORTS...WYOMING/IDAHO/WASHINGTON
CITY           SKY/WX    TMP DP  RH WIND       PRES   REMARKS
GILLETTE       PTCLDY    88  45  22 SW14      29.86F
SHERIDAN       CLOUDY    72  54  53 E3        29.85S
CODY           CLOUDY   N/A N/A N/A N/A        N/A
YELLOWSTONE LA CLOUDY    52  48  86 CALM      30.19S
SALMON         CLOUDY    63  52  68 CALM      29.91R
MULLAN PASS    PTCLDY    63  39  41 VRB7      29.91S
SAND POINT     CLOUDY    64  50  61 S5        29.74R
SPOKANE        CLOUDY    66  45  47 S10       29.76R
$$

REGIONAL REPORTS...ALBERTA
CITY           SKY/WX    TMP DP  RH WIND       PRES   REMARKS
CALGARY        PTSUNNY   66  48  52 N8        29.62S
LETHBRIDGE     PTSUNNY   73  48  41 SW7       29.63S
MEDICINE HAT   CLOUDY    70  54  57 SW9       29.59S
EDMONTON       CLOUDY    61  48  62 N8        29.60F
WATERTON GATE  N/A       73  41  32 SW15G24    N/A
CARDSTON       N/A       75  46  36 S6         N/A
MILK RIVER     N/A       68  45  44 SW12       N/A
$$

REGIONAL REPORTS...SASKATCHEWAN
CITY           SKY/WX    TMP DP  RH WIND       PRES   REMARKS
SWIFT CURRENT  SUNNY     79  48  34 SW13      29.57F
MOOSE JAW      CLOUDY    72  55  55 SW3       29.57F
REGINA         CLOUDY    68  54  61 S16       29.59F
VAL MARIE      N/A       66  54  65 S7         N/A
ASSINIBOIA     N/A       75  50  42 W12        N/A
CORONACH       N/A       75  54  48 SW10       N/A

$$



USA.gov is the U.S. government's official web portal to all federal, state and local government web resources and services.